Flag for French Polynesia Weather past 2 weeks in Papeete, Tahiti, French Polynesia

Now
86 °F

Passing clouds.


Feels Like: 92 °F
Forecast: 79 / 87 °F
Wind: 13 mph from Northeast

Location: Tahiti-Faaa

Current Time: Feb 1, 2015 at 9:06:55 AM

Latest Report: Feb 1, 2015 at 8:30 AM


Visibility: N/A

Pressure: 29.92 "Hg

Humidity: 62%

Dew point: 72 °F

Location of PapeeteLocation

Historic Weather in Papeete — Graph

°F

Papeete temperature yesterday

Maximum temperature yesterday: 88 °F (at 10:00 AM)
Minimum temperature yesterday: 79 °F (at 1:00 AM)
Average temperature yesterday: 83 °F

Past Weeks' High & Low Weather Summary

 TemperatureHumidityPressure
High90 °F (Jan 30, 12:30 PM)94% (Jan 17, 8:00 AM)29.92 "Hg (Jan 17, 8:00 AM)
Low73 °F (Jan 29, 4:00 AM)52% (Jan 30, 9:00 AM)29.59 "Hg (Jan 21, 2:30 PM)
Average81 °F78%29.78 "Hg
* Reported Jan 17 8:00 AM — Feb 1 8:00 AM, Papeete, Weather by CustomWeather, © 2014

Note: Actual official high and low records may vary slightly from our data, if they occured in-between our weather recording intervals... More about our weather records

Advertising

Papeete weather history for previous 24 hours

 ConditionsComfort  
Time TempWeatherWind HumidityBarometerVisibility
8:00 AM
Feb 1
84 °FPassing clouds.10 mph66%29.92 "HgN/A
7:30 AM82 °FPassing clouds.8 mph66%29.92 "HgN/A
7:00 AM82 °FPassing clouds.7 mph62%29.89 "HgN/A
6:30 AM81 °FPassing clouds.6 mph66%29.89 "HgN/A
6:00 AM77 °FPassing clouds.5 mph74%29.89 "HgN/A
5:30 AM79 °FPartly cloudy.6 mph70%29.86 "HgN/A
5:00 AM79 °FWarm.6 mph65%29.86 "HgN/A
4:30 AM79 °FWarm.5 mph70%29.86 "HgN/A
4:00 AM79 °FWarm.7 mph70%29.86 "HgN/A
3:30 AM79 °FWarm.8 mph70%29.86 "HgN/A
3:00 AM79 °FPassing clouds.9 mph70%29.83 "HgN/A
2:30 AM79 °FPassing clouds.9 mph70%29.86 "HgN/A
2:00 AM79 °FPassing clouds.8 mph70%29.86 "HgN/A
1:30 AM79 °FPassing clouds.6 mph74%29.86 "HgN/A
1:00 AM81 °FPassing clouds.8 mph70%29.86 "HgN/A
12:30 AM81 °FPassing clouds.8 mph70%29.86 "HgN/A
12:00 AM81 °FPassing clouds.8 mph66%29.89 "HgN/A
11:30 PM
Jan 31
81 °FPassing clouds.8 mph66%29.89 "HgN/A
11:00 PM81 °FPassing clouds.9 mph70%29.89 "HgN/A
10:30 PM81 °FPassing clouds.9 mph70%29.89 "HgN/A
10:00 PM81 °FPassing clouds.8 mph70%29.89 "HgN/A
9:30 PM81 °FPassing clouds.8 mph70%29.89 "HgN/A
9:00 PM82 °FPassing clouds.9 mph70%29.89 "HgN/A
8:30 PM82 °FPassing clouds.9 mph70%29.89 "HgN/A
8:00 PM82 °FPassing clouds.10 mph70%29.86 "HgN/A
7:30 PM82 °FPassing clouds.9 mph70%29.86 "HgN/A
7:00 PM84 °FPassing clouds.12 mph70%29.86 "HgN/A
6:30 PM84 °FPassing clouds.13 mph70%29.86 "HgN/A
6:00 PM84 °FPassing clouds.16 mph70%29.83 "HgN/A
5:30 PM86 °FScattered clouds.16 mph66%29.83 "HgN/A
5:00 PM86 °FScattered clouds.17 mph66%29.80 "HgN/A
4:30 PM86 °FScattered clouds.17 mph70%29.80 "HgN/A
4:00 PM88 °FPassing clouds.18 mph66%29.80 "HgN/A
3:30 PM88 °FPassing clouds.18 mph66%29.80 "HgN/A
3:00 PM88 °FPassing clouds.17 mph66%29.80 "HgN/A
2:30 PM88 °FPassing clouds.17 mph66%29.83 "HgN/A
2:00 PM88 °FScattered clouds.16 mph66%29.83 "HgN/A
1:30 PM88 °FPartly sunny.17 mph66%29.83 "HgN/A
1:00 PM88 °FPartly sunny.16 mph70%29.83 "HgN/A
12:30 PM88 °FPartly sunny.15 mph70%29.86 "HgN/A
12:00 PM88 °FBroken clouds.17 mph66%29.86 "HgN/A
11:30 AM88 °FBroken clouds.16 mph70%29.86 "HgN/A
11:00 AM88 °FBroken clouds.15 mph66%29.89 "HgN/A
10:30 AM88 °FScattered clouds.14 mph66%29.89 "HgN/A
10:00 AM88 °FScattered clouds.15 mph66%29.89 "HgN/A
9:30 AM86 °FScattered clouds.14 mph66%29.89 "HgN/A
9:00 AM86 °FPassing clouds.14 mph66%29.89 "HgN/A
Weather by CustomWeather, © 2014

See weather overviewHow to use our weather pages